• en France
  • Liste des pays
  • À 7 jours
  • Température de l'eau
  • Carte satellitaire
  • Carte météo
  • Widgets météo
  • user-avatar
    Se connecter

    Météo par heure à Knighton

    Ce jour, 18 Janvier, Jeudi

    Heure Température Précipitation Vent Pression Humidité
    00:00 +7°C° 0,8 mm 11 m/s 715 mmHg 86%
    01:00 +5°C° 0,1 mm 12 m/s 715 mmHg 84%
    02:00 +4°C° 0,1 mm 12 m/s 714 mmHg 82%
    03:00 +3°C° 0,1 mm 12 m/s 714 mmHg 80%
    04:00 +3°C° 0,1 mm 11 m/s 715 mmHg 81%
    05:00 +2°C° 0,1 mm 10 m/s 716 mmHg 81%
    06:00 +1°C° 0,1 mm 9 m/s 717 mmHg 82%
    07:00 +1°C° 0,1 mm 8 m/s 718 mmHg 82%
    08:00 +1°C° 0,1 mm 8 m/s 718 mmHg 82%
    09:00 0°C° 0,1 mm 7 m/s 719 mmHg 83%
    10:00 +1°C° 0,2 mm 8 m/s 719 mmHg 79%
    11:00 +1°C° 0,2 mm 8 m/s 720 mmHg 76%
    12:00 +2°C° 0,2 mm 9 m/s 720 mmHg 73%
    13:00 +1°C° 0,2 mm 8 m/s 721 mmHg 73%
    14:00 +1°C° 0,2 mm 8 m/s 721 mmHg 73%
    15:00 +2°C° 0,2 mm 7 m/s 721 mmHg 73%
    16:00 0°C° 0,1 mm 7 m/s 722 mmHg 75%
    17:00 -1°C° 0,1 mm 6 m/s 722 mmHg 77%
    18:00 -1°C° 0,1 mm 5 m/s 723 mmHg 79%
    19:00 -1°C° 0 mm 5 m/s 723 mmHg 79%
    20:00 -1°C° 0 mm 5 m/s 724 mmHg 79%
    21:00 -1°C° 0 mm 5 m/s 724 mmHg 79%
    22:00 -2°C° 0 mm 5 m/s 725 mmHg 80%
    23:00 -2°C° 0 mm 5 m/s 725 mmHg 82%

    Demain, 19 Janvier, Vendredi

    Heure Température Précipitation Vent Pression Humidité
    00:00 -2°C° 0 mm 4 m/s 725 mmHg 83%
    01:00 -2°C° 0 mm 4 m/s 725 mmHg 84%
    02:00 -3°C° 0 mm 4 m/s 725 mmHg 84%
    03:00 -3°C° 0 mm 4 m/s 725 mmHg 85%
    04:00 -3°C° 0 mm 4 m/s 725 mmHg 84%
    05:00 -3°C° 0 mm 4 m/s 725 mmHg 84%
    06:00 -3°C° 0 mm 4 m/s 725 mmHg 84%
    07:00 -2°C° 0,1 mm 4 m/s 725 mmHg 83%
    08:00 -2°C° 0,1 mm 5 m/s 725 mmHg 82%
    09:00 -2°C° 0,1 mm 5 m/s 725 mmHg 81%
    10:00 -2°C° 0,1 mm 6 m/s 725 mmHg 77%
    11:00 -1°C° 0,1 mm 7 m/s 725 mmHg 73%
    12:00 0°C° 0,1 mm 8 m/s 725 mmHg 70%
    13:00 -1°C° 0,1 mm 7 m/s 725 mmHg 69%
    14:00 -1°C° 0,1 mm 7 m/s 725 mmHg 68%
    15:00 -1°C° 0,1 mm 7 m/s 725 mmHg 67%
    16:00 -2°C° 0 mm 6 m/s 725 mmHg 71%
    17:00 -2°C° 0 mm 6 m/s 725 mmHg 74%
    18:00 -2°C° 0 mm 5 m/s 725 mmHg 77%
    19:00 -2°C° 0 mm 5 m/s 726 mmHg 78%
    20:00 -2°C° 0 mm 5 m/s 726 mmHg 79%
    21:00 -2°C° 0 mm 5 m/s 726 mmHg 80%
    22:00 -2°C° 0 mm 5 m/s 726 mmHg 81%
    23:00 -2°C° 0 mm 5 m/s 726 mmHg 81%

    Après-demain, 20 Janvier, Samedi

    Heure Température Précipitation Vent Pression Humidité
    00:00 -4°C° 0 mm 5 m/s 726 mmHg 82%
    01:00 -3°C° 0 mm 4 m/s 726 mmHg 83%
    02:00 -3°C° 0 mm 4 m/s 726 mmHg 85%
    03:00 -2°C° 0 mm 3 m/s 725 mmHg 86%
    04:00 -2°C° 0 mm 3 m/s 725 mmHg 87%
    05:00 -2°C° 0 mm 2 m/s 725 mmHg 88%
    06:00 -2°C° 0 mm 2 m/s 725 mmHg 89%
    07:00 -2°C° 0 mm 2 m/s 725 mmHg 88%
    08:00 -2°C° 0 mm 2 m/s 726 mmHg 87%
    09:00 -1°C° 0 mm 2 m/s 726 mmHg 86%
    10:00 +1°C° 0 mm 2 m/s 726 mmHg 82%
    11:00 +2°C° 0 mm 2 m/s 727 mmHg 78%
    12:00 +3°C° 0 mm 2 m/s 727 mmHg 74%
    13:00 +3°C° 0 mm 2 m/s 727 mmHg 75%
    14:00 +3°C° 0 mm 2 m/s 727 mmHg 77%
    15:00 +4°C° 0 mm 1 m/s 727 mmHg 78%
    16:00 +4°C° 0,1 mm 1 m/s 728 mmHg 81%
    17:00 +3°C° 0,1 mm 1 m/s 728 mmHg 83%
    18:00 +2°C° 0,1 mm 1 m/s 728 mmHg 86%
    19:00 +2°C° 0,3 mm 1 m/s 728 mmHg 87%
    20:00 +1°C° 0,3 mm 2 m/s 728 mmHg 87%
    21:00 +2°C° 0,3 mm 2 m/s 729 mmHg 88%
    22:00 +2°C° 0,4 mm 2 m/s 728 mmHg 90%
    23:00 +1°C° 0,4 mm 3 m/s 728 mmHg 92%

    21 Janvier, Dimanche

    Heure Température Précipitation Vent Pression Humidité
    00:00 +1°C° 0,4 mm 3 m/s 728 mmHg 93%
    01:00 0°C° 0,9 mm 4 m/s 727 mmHg 94%
    02:00 0°C° 0,9 mm 4 m/s 727 mmHg 95%
    03:00 +1°C° 0,9 mm 4 m/s 727 mmHg 96%
    04:00 +3°C° 0,6 mm 4 m/s 726 mmHg 96%
    05:00 +3°C° 0,6 mm 5 m/s 726 mmHg 97%
    06:00 +6°C° 0,6 mm 5 m/s 726 mmHg 97%
    07:00 +7°C° 0,6 mm 6 m/s 726 mmHg 96%
    08:00 +8°C° 0,6 mm 7 m/s 726 mmHg 94%
    09:00 +7°C° 0,6 mm 8 m/s 726 mmHg 93%
    10:00 +9°C° 0,9 mm 8 m/s 726 mmHg 93%
    11:00 +9°C° 0,9 mm 8 m/s 726 mmHg 93%
    12:00 +9°C° 0,9 mm 8 m/s 726 mmHg 92%
    13:00 +9°C° 0,2 mm 7 m/s 726 mmHg 92%
    14:00 +9°C° 0,2 mm 7 m/s 726 mmHg 93%
    15:00 +9°C° 0,2 mm 7 m/s 727 mmHg 93%
    16:00 +9°C° 0 mm 6 m/s 727 mmHg 93%
    17:00 +8°C° 0 mm 5 m/s 728 mmHg 94%
    18:00 +8°C° 0 mm 5 m/s 728 mmHg 94%
    19:00 +8°C° 0 mm 4 m/s 728 mmHg 95%
    20:00 +7°C° 0 mm 4 m/s 729 mmHg 95%
    21:00 +8°C° 0 mm 3 m/s 729 mmHg 96%
    22:00 +8°C° 0 mm 3 m/s 729 mmHg 96%
    23:00 +8°C° 0 mm 2 m/s 730 mmHg 96%

    22 Janvier, Lundi

    Heure Température Précipitation Vent Pression Humidité
    00:00 +8°C° 0 mm 2 m/s 730 mmHg 97%
    01:00 +8°C° 0,5 mm 2 m/s 729 mmHg 97%
    02:00 +8°C° 0,5 mm 2 m/s 729 mmHg 97%
    03:00 +8°C° 0,5 mm 2 m/s 729 mmHg 98%
    04:00 +8°C° 0,7 mm 3 m/s 728 mmHg 97%
    05:00 +8°C° 0,7 mm 4 m/s 728 mmHg 96%
    06:00 +8°C° 0,7 mm 5 m/s 728 mmHg 96%
    07:00 +9°C° 0,2 mm 6 m/s 728 mmHg 94%
    08:00 +9°C° 0,2 mm 7 m/s 728 mmHg 93%
    09:00 +9°C° 0,2 mm 7 m/s 727 mmHg 91%
    10:00 +9°C° 0,1 mm 8 m/s 727 mmHg 91%
    11:00 +9°C° 0,1 mm 8 m/s 727 mmHg 90%
    12:00 +8°C° 0,1 mm 9 m/s 726 mmHg 89%
    13:00 +8°C° 0,5 mm 9 m/s 726 mmHg 89%
    14:00 +8°C° 0,5 mm 10 m/s 725 mmHg 89%
    15:00 +9°C° 0,5 mm 11 m/s 724 mmHg 89%
    16:00 +8°C° 0,1 mm 10 m/s 725 mmHg 89%
    17:00 +8°C° 0,1 mm 10 m/s 725 mmHg 88%
    18:00 +8°C° 0,1 mm 10 m/s 725 mmHg 88%
    19:00 +7°C° 0 mm 9 m/s 725 mmHg 87%
    20:00 +6°C° 0 mm 9 m/s 726 mmHg 87%
    21:00 +5°C° 0 mm 8 m/s 726 mmHg 86%
    22:00 +6°C° 0 mm 8 m/s 727 mmHg 87%
    23:00 +6°C° 0 mm 8 m/s 727 mmHg 88%

    23 Janvier, Mardi

    Heure Température Précipitation Vent Pression Humidité
    00:00 +6°C° 0 mm 8 m/s 727 mmHg 89%
    01:00 +6°C° 0,1 mm 8 m/s 728 mmHg 89%
    02:00 +7°C° 0,1 mm 8 m/s 728 mmHg 89%
    03:00 +7°C° 0,1 mm 9 m/s 728 mmHg 88%
    04:00 +7°C° 0,1 mm 8 m/s 729 mmHg 88%
    05:00 +6°C° 0,1 mm 7 m/s 729 mmHg 87%
    06:00 +6°C° 0,1 mm 7 m/s 730 mmHg 87%
    07:00 +7°C° 0 mm 6 m/s 730 mmHg 88%
    08:00 +6°C° 0 mm 5 m/s 731 mmHg 89%
    09:00 +6°C° 0 mm 5 m/s 732 mmHg 91%
    10:00 +7°C° 0 mm 5 m/s 732 mmHg 90%
    11:00 +8°C° 0 mm 6 m/s 732 mmHg 89%
    12:00 +9°C° 0 mm 7 m/s 732 mmHg 88%
    13:00 +9°C° 0,1 mm 7 m/s 731 mmHg 88%
    14:00 +9°C° 0,1 mm 7 m/s 731 mmHg 88%
    15:00 +9°C° 0,1 mm 7 m/s 731 mmHg 89%
    16:00 +9°C° 0 mm 8 m/s 730 mmHg 88%
    17:00 +7°C° 0 mm 8 m/s 730 mmHg 87%
    18:00 +7°C° 0 mm 9 m/s 729 mmHg 87%
    19:00 +8°C° 0,1 mm 9 m/s 729 mmHg 88%
    20:00 +9°C° 0,1 mm 8 m/s 729 mmHg 89%
    21:00 +10°C° 0,1 mm 8 m/s 728 mmHg 90%
    22:00 +10°C° 1,1 mm 9 m/s 728 mmHg 90%
    23:00 +10°C° 1,1 mm 9 m/s 727 mmHg 89%
    Voir plus